CW0009 Weather Reports


time (UTC)temp
F
wind
direction
speed
knots
gust
knots
rain 1hr
in
rain 24hr
in
rain mn
in
humidity
%
barometer
mb
20180918142018 96 220 11.3 13.0 0.00 0.00 0.00 11 1012.0
20180918141014 96 190 11.3 13.0 0.00 0.00 0.00 11 1012.0
20180918140010 75 200 12.2 13.9 0.00 0.00 0.00 68 1012.0
20180918135012 75 210 12.2 13.0 0.00 0.00 0.00 68 1012.0
20180918134012 98 205 12.2 15.6 0.00 0.00 0.00 11 1012.0
20180918133047 75 195 11.3 13.0 0.00 0.00 0.00 68 1012.0
20180918094012 73 200 10.4 13.0 0.00 0.00 0.00 77 1011.0
20180918093013 72 215 7.8 12.2 0.00 0.00 0.00 78 1011.0
20180918091012 69 190 7.0 10.4 0.00 0.00 0.00 79 1011.0
20180918090011 67 185 7.0 7.0 0.00 0.00 0.00 80 1011.0
20180918085012 67 200 8.7 10.4 0.00 0.00 0.00 79 1011.0
20180918084033 66 175 10.4 11.3 0.00 0.00 0.00 80 1011.0
20180918083013 65 205 8.7 12.2 0.00 0.00 0.00 80 1011.0
20180918082013 65 185 7.8 8.7 0.00 0.00 0.00 80 1011.0
20180918081033 64 205 10.4 12.2 0.00 0.00 0.00 80 1011.0
20180918080011 64 185 10.4 12.2 0.00 0.00 0.00 80 1011.0
20180918075012 63 180 7.8 12.2 0.00 0.00 0.00 81 1011.0
20180918074033 62 215 7.8 8.7 0.00 0.00 0.00 81 1011.0
20180918073035 60 185 7.8 8.7 0.00 0.00 0.00 82 1011.0
20180918072012 60 180 6.1 11.3 0.00 0.00 0.00 82 1011.0
20180918071012 59 190 2.6 5.2 0.00 0.00 0.00 82 1011.0
20180918070011 58 120 0.0 5.2 0.00 0.00 0.00 82 1011.0
20180918065012 58 120 0.0 0.0 0.00 0.00 0.00 82 1010.0
20180918064012 57 120 0.0 0.0 0.00 0.00 0.00 82 1010.0
20180918063033 56 120 0.0 0.0 0.00 0.00 0.00 82 1010.0
20180918062012 56 120 0.0 0.0 0.00 0.00 0.00 82 1010.0
20180918061012 56 120 0.0 0.0 0.00 0.00 0.00 82 1010.0
20180918060011 56 120 0.0 0.0 0.00 0.00 0.00 82 1010.0
20180918055033 55 120 0.0 0.0 0.00 0.00 0.00 82 1010.0
20180918054013 55 120 0.0 0.0 0.00 0.00 0.00 82 1010.0
20180918053013 55 120 0.0 0.0 0.00 0.00 0.00 82 1010.0
20180918052033 55 120 0.0 0.0 0.00 0.00 0.00 82 1010.0
20180918051033 55 120 0.0 0.0 0.00 0.00 0.00 82 1009.0
20180918050015 55 120 0.0 0.9 0.00 0.00 0.00 82 1010.0
20180918045012 55 120 0.0 0.0 0.00 0.00 0.00 82 1009.0
20180918043013 55 120 0.0 0.9 0.00 0.00 0.00 82 1009.0
20180918042012 54 120 0.9 0.9 0.00 0.00 0.00 82 1010.0
20180918041012 54 120 1.7 2.6 0.00 0.00 0.00 82 1010.0
20180918040013 54 120 0.9 2.6 0.00 0.00 0.00 82 1010.0
20180918035012 54 120 0.0 0.0 0.00 0.00 0.00 82 1010.0
20180918034033 54 120 0.0 0.0 0.00 0.00 0.00 83 1010.0
20180918033027 54 120 0.0 0.0 0.00 0.00 0.00 83 1010.0
20180918032100 54 120 0.0 0.0 0.00 0.00 0.00 82 1010.0
20180918022012 54 120 0.0 0.0 0.00 0.00 0.00 82 1010.0
20180918021012 54 120 0.0 0.0 0.00 0.00 0.00 82 1010.0
20180918020010 54 120 0.0 0.0 0.00 0.00 0.00 82 1011.0
20180918015012 54 120 0.0 0.0 0.00 0.00 0.00 82 1011.0
20180918014013 54 120 0.0 0.0 0.00 0.00 0.00 82 1011.0
20180918013013 54 120 0.0 0.0 0.00 0.00 0.00 82 1011.0
20180918012012 54 120 0.0 0.0 0.00 0.00 0.00 82 1011.0
20180918011013 55 120 0.0 0.0 0.00 0.00 0.00 82 1011.0
20180918010012 55 120 0.0 0.0 0.00 0.00 0.00 82 1011.0
20180918005033 55 120 0.0 0.0 0.00 0.00 0.00 82 1011.0
20180918003014 55 120 0.0 0.0 0.00 0.00 0.00 82 1012.0
20180918002012 55 120 0.0 0.0 0.00 0.00 0.00 82 1012.0
20180918001033 55 120 0.0 0.0 0.00 0.00 0.00 82 1012.0
20180918000011 55 120 0.0 0.0 0.00 0.00 0.00 82 1012.0
20180917235012 56 120 0.0 0.0 0.00 0.00 0.00 82 1012.0
20180917234012 56 120 0.0 0.0 0.00 0.00 0.00 82 1012.0
20180917233012 56 120 0.0 0.0 0.00 0.00 0.00 82 1012.0
20180917232012 56 120 0.0 0.0 0.00 0.00 0.00 82 1012.0
20180917231013 56 120 0.0 0.0 0.00 0.00 0.00 82 1012.0
20180917230025 56 120 0.0 0.0 0.00 0.00 0.00 82 1012.0
20180917225016 57 120 0.0 0.0 0.00 0.00 0.00 81 1012.0
20180917224359 57 120 0.0 0.0 0.00 0.00 0.00 81 1012.0
20180917220012 58 120 0.0 0.0 0.00 0.00 0.00 81 1013.0
20180917215012 58 120 0.0 0.0 0.00 0.00 0.00 81 1013.0
20180917214013 58 120 0.0 0.0 0.00 0.00 0.00 81 1013.0
20180917213034 59 120 0.0 0.0 0.00 0.00 0.00 81 1013.0
20180917212033 59 120 0.0 0.0 0.00 0.00 0.00 80 1013.0
20180917211033 59 120 0.0 0.0 0.00 0.00 0.00 80 1013.0
20180917210011 59 120 0.0 0.0 0.00 0.00 0.00 80 1013.0
20180917205012 60 120 0.0 0.0 0.00 0.00 0.00 80 1013.0
20180917204012 60 120 0.0 0.0 0.00 0.00 0.00 80 1013.0
20180917203013 60 120 0.0 0.0 0.00 0.00 0.00 80 1013.0
20180917202034 61 120 0.0 0.0 0.00 0.00 0.00 80 1013.0
20180917201012 61 120 0.0 0.0 0.00 0.00 0.00 79 1014.0
20180917200010 62 120 0.0 0.0 0.00 0.00 0.00 79 1014.0
20180917195012 62 120 0.0 0.0 0.00 0.00 0.00 79 1014.0
20180917194013 62 120 0.0 0.0 0.00 0.00 0.00 79 1014.0
20180917193013 63 120 0.0 0.0 0.00 0.00 0.00 78 1014.0
20180917191013 64 120 0.0 0.0 0.00 0.00 0.00 77 1014.0
20180917190011 64 120 0.0 0.0 0.00 0.00 0.00 77 1014.0
20180917185012 65 120 0.0 0.0 0.00 0.00 0.00 77 1014.0
20180917183034 66 120 0.0 0.0 0.00 0.00 0.00 75 1014.0
20180917182012 66 120 0.0 0.0 0.00 0.00 0.00 75 1014.0
20180917181012 67 120 0.0 0.0 0.00 0.00 0.00 74 1014.0
20180917180012 68 120 0.0 0.0 0.00 0.00 0.00 73 1014.0
20180917175047 68 120 0.0 0.0 0.00 0.00 0.00 73 1014.0
20180917174054 68 120 0.0 0.0 0.00 0.00 0.00 72 1014.0
20180917165034 70 120 0.0 0.0 0.00 0.00 0.00 68 1014.0
20180917164012 71 120 0.0 0.0 0.00 0.00 0.00 67 1014.0
20180917163012 71 120 0.0 0.0 0.00 0.00 0.00 66 1015.0
20180917162032 71 120 0.0 0.0 0.00 0.00 0.00 65 1015.0
20180917161032 71 120 0.0 0.0 0.00 0.00 0.00 64 1015.0
20180917160009 71 120 0.0 0.0 0.00 0.00 0.00 63 1015.0
20180917155012 71 120 0.0 0.9 0.00 0.00 0.00 63 1015.0
20180917154032 71 120 1.7 0.0 0.00 0.00 0.00 63 1015.0
20180917153011 72 175 2.6 5.2 0.00 0.00 0.00 62 1015.0
20180917152011 72 165 1.7 4.3 0.00 0.00 0.00 63 1015.0
20180917151011 72 170 1.7 4.3 0.00 0.00 0.00 62 1015.0
20180917150011 72 125 2.6 4.3 0.00 0.00 0.00 62 1016.0
20180917145032 72 150 4.3 7.0 0.00 0.00 0.00 62 1016.0
20180917144012 72 155 4.3 7.0 0.00 0.00 0.00 63 1016.0
20180917143012 72 160 5.2 7.0 0.00 0.00 0.00 63 1016.0